Tracking 29059 objects as of 17-Jun-2024
HD Live streaming from Space Station
objects crossing your sky now

OBJECT A

Track OBJECT A now!
10-day predictions


NORAD ID: 52716
Int'l Code: 2022-056A
Perigee: 872.0 km
Apogee: 902.9 km
Inclination: 86.0 °
Period: 102.6 minutes
Semi major axis: 7258 km
RCS: Unknown
Launch date: May 20, 2022
Source: People's Republic of China (PRC)
Launch site: Jiuquan Satellite Launch Center, China (JSC)

Note: This is a ROCKET BODY
Your satellite tracking list
Your tracking list is empty




NASA's NSSDC Master Catalog

Two Line Element Set (TLE):
1 52716U 22056A   24168.89493742  .00000297  00000-0  17612-3 0  9991
2 52716  86.0035 345.8824 0021270 120.5330 239.7952 14.03911986106405
Source of the keplerian elements: AFSPC